GALAXY 31 (G-31)

Last updated on Tue Sep 22 2026 00:03:16 GMT+0000 (Coordinated Universal Time)

1 54243U 22153A 26264.49269113 .00000009 00000+0 00000+0 0 9993 2 54243 0.0140 167.5095 0001350 1.5817 247.6592 1.00271849 8093
UTC large
Height (km)
Speed (km/s)
/
Latitude / Longitude
Inclination (degrees)
Orbital Period (minutes)
Azimuth
Elevation
Range (km)
Doppler Factor

Next 0 passes for location: London (51.5072 / 0.1276)

No passes found over London.
GALAXY 31 (G-31)